Saranac Lake, NY

5:59 PM EDT on April 27, 2017 (GMT -0400)
Adirondack Regional

Weather History for KSLK - March, 2012

Change the Weather History Date:

Tuesday, March 13, 2012

  Actual Average Record
Temperature  
Mean Temperature 46 °F 23 °F  
Max Temperature 56 °F 35 °F 57 °F (1977)
Min Temperature 36 °F 11 °F -13 °F (2014)
Degree Days  
Heating Degree Days 19 42  
Month to date heating degree days 471 577  
Since 1 July heating degree days 6219 7282  
Cooling Degree Days 0 0  
Month to date cooling degree days 0 0  
Year to date cooling degree days 0 0  
Moisture  
Dew Point 41 °F    
Average Humidity 78    
Maximum Humidity 100    
Minimum Humidity 56    
Precipitation  
Precipitation 0.19 in 0.07 in 0.90 in (1962)
Month to date precipitation 0.76 0.77  
Year to date precipitation 4.45 4.51  
Sea Level Pressure  
Sea Level Pressure 29.87 in    
Wind  
Wind Speed 6 mph (SW)    
Max Wind Speed 21 mph    
Max Gust Speed 29 mph    
Visibility 8 miles    
Events Rain    
T = Trace of Precipitation, MM = Missing Value Source: NWS Daily Summary

Daily Weather History Graph

Daily Weather History Graph

Search for Another Location

Airport or City:

Trip Planner

Search our weather history database for the weather conditions in past years. The results will help you decide how hot, cold, wet, or windy it might be!

Date:

Astronomy

Mar. 13, 2012 Rise Set
Actual Time 7:11 AM EDT 7:01 PM EDT
Civil Twilight 6:43 AM EDT 7:29 PM EDT
Nautical Twilight 6:09 AM EDT 8:03 PM EDT
Astronomical Twilight 5:35 AM EDT 8:38 PM EDT
Moon 12:44 AM EDT (3/13) 10:07 AM EDT (3/13)
Length of Visible Light 12h 46m
Length of Day
11h 49m
Waning Gibbous, 66% of the Moon is Illuminated
Mar 13
Waning Gibbous
Mar 14
Last Quarter
Mar 22
New
Mar 30
First Quarter
Apr 6
Full

Hourly Weather History & Observations

Time (EDT) Temp. Windchill Dew Point Humidity Pressure Visibility Wind Dir Wind Speed Gust Speed Precip Events Conditions
12:51 AM 37.9 °F - 30.9 °F 76% 30.00 in 10.0 mi Calm Calm - N/A   Overcast
1:51 AM 37.9 °F - 30.9 °F 76% 29.97 in 10.0 mi Calm Calm - N/A   Overcast
2:51 AM 39.0 °F - 30.9 °F 73% 29.95 in 10.0 mi Calm Calm - N/A   Overcast
3:37 AM 39.2 °F - 33.8 °F 81% 29.92 in 10.0 mi Calm Calm - N/A   Overcast
3:51 AM 39.9 °F - 32.0 °F 73% 29.92 in 10.0 mi Calm Calm - N/A   Overcast
4:51 AM 50.0 °F - 35.1 °F 57% 29.90 in 10.0 mi WSW 6.9 mph - N/A   Overcast
5:51 AM 50.0 °F - 39.0 °F 66% 29.88 in 10.0 mi SSW 6.9 mph - N/A   Overcast
6:24 AM 50.0 °F - 39.2 °F 66% 29.86 in 10.0 mi SW 9.2 mph - N/A   Overcast
6:51 AM 48.9 °F - 39.9 °F 71% 29.87 in 10.0 mi WSW 8.1 mph - N/A   Scattered Clouds
7:27 AM 46.4 °F 45.2 °F 42.8 °F 87% 29.85 in 4.0 mi WSW 3.5 mph - 0.02 in Rain Light Rain
7:51 AM 45.0 °F - 43.0 °F 93% 29.87 in 10.0 mi Calm Calm - 0.02 in   Overcast
8:06 AM 46.4 °F 44.3 °F 42.8 °F 87% 29.84 in 8.0 mi SW 4.6 mph - 0.00 in Rain Light Rain
8:51 AM 48.2 °F - 44.6 °F 87% 29.82 in 10.0 mi SW 6.9 mph - N/A   Overcast
9:37 AM 48.2 °F - 44.6 °F 87% 29.82 in 1.8 mi West 6.9 mph - 0.04 in Rain Heavy Rain
9:51 AM 46.9 °F - 45.0 °F 93% 29.86 in 1.5 mi WSW 6.9 mph - 0.12 in Rain Rain
10:00 AM 46.4 °F 42.4 °F 44.6 °F 93% 29.83 in 3.0 mi WSW 8.1 mph - 0.01 in Rain Light Rain
10:12 AM 48.2 °F - 46.4 °F 93% 29.82 in 2.0 mi SSW 10.4 mph - 0.04 in Rain Rain
10:20 AM 48.2 °F - 46.4 °F 93% 29.82 in 4.0 mi SW 12.7 mph - 0.04 in Rain Light Rain
10:51 AM 48.9 °F - 46.0 °F 90% 29.84 in 6.0 mi SW 9.2 mph - 0.05 in   Overcast
11:30 AM 48.2 °F - 46.4 °F 93% 29.83 in 2.5 mi WSW 5.8 mph - 0.00 in Rain Light Rain
11:37 AM 48.2 °F - 46.4 °F 93% 29.83 in 2.5 mi WSW 8.1 mph - 0.00 in Rain Light Rain
11:46 AM 48.2 °F - 46.4 °F 93% 29.83 in 4.0 mi WSW 9.2 mph - 0.00 in   Overcast
11:51 AM 48.9 °F - 48.0 °F 97% 29.86 in 5.0 mi SW 8.1 mph - 0.00 in   Overcast
12:06 PM 51.8 °F - 48.2 °F 88% 29.83 in 7.0 mi WSW 8.1 mph - N/A   Overcast
12:08 PM 51.8 °F - 48.2 °F 88% 29.83 in 8.0 mi SW 9.2 mph - N/A   Overcast
12:14 PM 51.8 °F - 48.2 °F 88% 29.83 in 8.0 mi SW 9.2 mph - N/A   Overcast
12:22 PM 51.8 °F - 48.2 °F 88% 29.83 in 9.0 mi SW 11.5 mph - N/A   Overcast
12:39 PM 51.8 °F - 48.2 °F 88% 29.84 in 10.0 mi WSW 11.5 mph - N/A   Mostly Cloudy
12:51 PM 52.0 °F - 48.0 °F 86% 29.86 in 10.0 mi SW 13.8 mph 19.6 mph N/A   Overcast
1:00 PM 53.6 °F - 46.4 °F 77% 29.84 in 10.0 mi WSW 11.5 mph 23.0 mph N/A   Overcast
1:51 PM 53.1 °F - 43.0 °F 69% 29.86 in 10.0 mi WSW 12.7 mph 25.3 mph N/A   Mostly Cloudy
2:51 PM 55.4 °F - 41.0 °F 58% 29.84 in 10.0 mi SW 17.3 mph 26.5 mph N/A   Mostly Cloudy
3:51 PM 52.0 °F - 39.9 °F 63% 29.87 in 10.0 mi SW 11.5 mph 17.3 mph N/A   Overcast
4:51 PM 53.1 °F - 39.9 °F 61% 29.86 in 10.0 mi SW 5.8 mph - N/A   Overcast
5:51 PM 53.6 °F - 39.2 °F 58% 29.86 in 10.0 mi SW 10.4 mph - N/A   Scattered Clouds
6:51 PM 50.0 °F - 37.9 °F 63% 29.89 in 10.0 mi SW 5.8 mph - N/A   Mostly Cloudy
7:51 PM 42.1 °F - 37.0 °F 82% 29.91 in 10.0 mi Calm Calm - N/A   Mostly Cloudy
8:51 PM 37.9 °F - 34.0 °F 86% 29.92 in 10.0 mi Calm Calm - N/A   Partly Cloudy
9:51 PM 36.0 °F - 33.1 °F 89% 29.92 in 10.0 mi Calm Calm - N/A   Partly Cloudy
10:19 PM 42.8 °F 41.1 °F 39.2 °F 87% 29.90 in 10.0 mi WSW 3.5 mph - N/A   Overcast
10:51 PM 45.0 °F 42.6 °F 39.0 °F 80% 29.93 in 10.0 mi WSW 4.6 mph - N/A   Overcast
11:51 PM 44.1 °F 41.5 °F 39.0 °F 82% 29.94 in 10.0 mi WSW 4.6 mph - N/A   Mostly Cloudy